Location: Calberlah
(52.4230°N, 10.6240°E)
Time: 23:46:56
(UTC+00:00)

Cosmos 2173 Rocket - Pass Details

Date: 19 May 2025
Orbit: 943 x 1000 km, 83.0° (Epoch: 22 June)

Event Time Altitude Azimuth Distance (km) Brightness Sun altitude
Rises 23:08:51 0° 350° (N) 3,734 8.7 -17.6°
Reaches altitude 10° 23:11:25 10° 353° (N) 2,777 7.7 -17.6°
Maximum altitude 23:17:47 67° 76° (ENE) 1,071 4.2 -17.6°
Enters shadow 23:21:47 24° 154° (SSE) 1,935 5.1 -17.6°
